When you browse on this site, cookies collect data to enhance your experience and personalize the content and advertising you see.
Visit our Privacy Policy to learn more. By continuing to use the site, you agree to this use of cookies and data.
  • In Romania
  • List of Countries
  • For 7 days
  • Water Temperature
  • Satellite Maps
  • Weather Map
  • Weather Widgets
  • user-avatar
    Login

    Hourly Weather Wronin

    Today, 22 February, Friday

    Time Temperature Precipitation Wind Pressure Humidity
    00:00 +3°C° 0.4 mm 5 mps 741 mmHg 86%
    01:00 +4°C° 0 mm 4 mps 741 mmHg 87%
    02:00 +4°C° 0.6 mm 4 mps 740 mmHg 88%
    03:00 +3°C° 0.6 mm 5 mps 740 mmHg 88%
    04:00 +3°C° 0.6 mm 5 mps 740 mmHg 89%
    05:00 +2°C° 0.6 mm 6 mps 741 mmHg 87%
    06:00 -1°C° 0.6 mm 7 mps 742 mmHg 85%
    07:00 -3°C° 0 mm 7 mps 743 mmHg 80%
    08:00 -3°C° 0.1 mm 7 mps 744 mmHg 75%
    09:00 -4°C° 0.1 mm 7 mps 746 mmHg 70%
    10:00 -4°C° 0.1 mm 7 mps 747 mmHg 64%
    11:00 -4°C° 0 mm 7 mps 748 mmHg 58%
    12:00 -4°C° 0 mm 7 mps 749 mmHg 52%
    13:00 -3°C° 0 mm 7 mps 750 mmHg 46%
    14:00 -4°C° 0 mm 7 mps 750 mmHg 45%
    15:00 -4°C° 0 mm 7 mps 751 mmHg 45%
    16:00 -5°C° 0 mm 6 mps 751 mmHg 44%
    17:00 -5°C° 0 mm 6 mps 752 mmHg 45%
    18:00 -6°C° 0 mm 6 mps 753 mmHg 46%
    19:00 -6°C° 0 mm 5 mps 753 mmHg 47%
    20:00 -6°C° 0 mm 5 mps 754 mmHg 44%
    21:00 -6°C° 0 mm 5 mps 755 mmHg 42%
    22:00 -7°C° 0 mm 5 mps 755 mmHg 39%
    23:00 -7°C° 0 mm 5 mps 756 mmHg 40%

    Tomorrow, 23 February, Saturday

    Time Temperature Precipitation Wind Pressure Humidity
    00:00 -7°C° 0 mm 5 mps 756 mmHg 40%
    01:00 -7°C° 0 mm 4 mps 756 mmHg 40%
    02:00 -7°C° 0 mm 4 mps 757 mmHg 42%
    03:00 -7°C° 0 mm 4 mps 757 mmHg 43%
    04:00 -6°C° 0 mm 3 mps 757 mmHg 45%
    05:00 -6°C° 0 mm 3 mps 757 mmHg 46%
    06:00 -7°C° 0 mm 3 mps 757 mmHg 48%
    07:00 -7°C° 0 mm 3 mps 758 mmHg 49%
    08:00 -6°C° 0 mm 3 mps 758 mmHg 47%
    09:00 -5°C° 0 mm 3 mps 758 mmHg 44%
    10:00 -5°C° 0 mm 3 mps 758 mmHg 42%
    11:00 -4°C° 0 mm 3 mps 758 mmHg 39%
    12:00 -2°C° 0 mm 3 mps 758 mmHg 35%
    13:00 -2°C° 0 mm 2 mps 758 mmHg 32%
    14:00 -2°C° 0 mm 2 mps 758 mmHg 33%
    15:00 -2°C° 0 mm 2 mps 757 mmHg 33%
    16:00 -2°C° 0 mm 2 mps 757 mmHg 34%
    17:00 0°C° 0 mm 1 mps 757 mmHg 37%
    18:00 -1°C° 0 mm 1 mps 757 mmHg 40%
    19:00 -2°C° 0 mm 1 mps 757 mmHg 43%
    20:00 -2°C° 0 mm 1 mps 757 mmHg 44%
    21:00 -2°C° 0 mm 1 mps 757 mmHg 45%
    22:00 -3°C° 0 mm 0 mps 757 mmHg 45%
    23:00 -2°C° 0 mm 1 mps 757 mmHg 46%

    Day after tomorrow, 24 February, Sunday

    Time Temperature Precipitation Wind Pressure Humidity
    00:00 -2°C° 0 mm 1 mps 757 mmHg 46%
    01:00 -2°C° 0 mm 1 mps 756 mmHg 46%
    02:00 -2°C° 0 mm 1 mps 756 mmHg 44%
    03:00 -1°C° 0 mm 1 mps 756 mmHg 43%
    04:00 -1°C° 0 mm 1 mps 756 mmHg 42%
    05:00 -1°C° 0 mm 1 mps 756 mmHg 42%
    06:00 -1°C° 0 mm 1 mps 756 mmHg 42%
    07:00 -2°C° 0 mm 1 mps 755 mmHg 42%
    08:00 0°C° 0 mm 1 mps 755 mmHg 37%
    09:00 -1°C° 0 mm 2 mps 755 mmHg 32%
    10:00 +1°C° 0 mm 2 mps 755 mmHg 27%
    11:00 +1°C° 0 mm 3 mps 755 mmHg 25%
    12:00 +3°C° 0 mm 3 mps 755 mmHg 24%
    13:00 +4°C° 0 mm 3 mps 755 mmHg 23%
    14:00 +3°C° 0 mm 3 mps 754 mmHg 27%
    15:00 +3°C° 0 mm 3 mps 754 mmHg 31%
    16:00 +2°C° 0 mm 3 mps 754 mmHg 35%
    17:00 +1°C° 0 mm 3 mps 754 mmHg 38%
    18:00 0°C° 0 mm 3 mps 754 mmHg 41%
    19:00 -1°C° 0 mm 3 mps 754 mmHg 45%
    20:00 -1°C° 0 mm 3 mps 754 mmHg 46%
    21:00 -1°C° 0 mm 3 mps 754 mmHg 47%
    22:00 -1°C° 0 mm 3 mps 754 mmHg 49%
    23:00 -1°C° 0 mm 3 mps 754 mmHg 51%

    25 February, Monday

    Time Temperature Precipitation Wind Pressure Humidity
    00:00 -1°C° 0 mm 3 mps 754 mmHg 52%
    01:00 -1°C° 0 mm 3 mps 754 mmHg 54%
    02:00 -1°C° 0 mm 3 mps 754 mmHg 56%
    03:00 -2°C° 0 mm 4 mps 754 mmHg 57%
    04:00 -2°C° 0 mm 4 mps 754 mmHg 59%
    05:00 -2°C° 0 mm 4 mps 754 mmHg 61%
    06:00 -2°C° 0 mm 4 mps 754 mmHg 62%
    07:00 -2°C° 0 mm 4 mps 754 mmHg 64%
    08:00 -1°C° 0 mm 4 mps 754 mmHg 63%
    09:00 0°C° 0 mm 4 mps 754 mmHg 62%
    10:00 +3°C° 0 mm 4 mps 754 mmHg 60%
    11:00 +4°C° 0 mm 4 mps 754 mmHg 61%
    12:00 +5°C° 0 mm 4 mps 754 mmHg 62%
    13:00 +6°C° 0 mm 4 mps 754 mmHg 63%
    14:00 +6°C° 0 mm 4 mps 753 mmHg 65%
    15:00 +5°C° 0 mm 3 mps 753 mmHg 67%
    16:00 +5°C° 0 mm 3 mps 753 mmHg 70%
    17:00 +4°C° 0 mm 3 mps 753 mmHg 75%
    18:00 +3°C° 0 mm 3 mps 753 mmHg 81%
    19:00 +2°C° 0 mm 3 mps 753 mmHg 86%
    20:00 +1°C° 0 mm 3 mps 753 mmHg 87%
    21:00 +1°C° 0 mm 3 mps 753 mmHg 87%
    22:00 +1°C° 0 mm 3 mps 753 mmHg 88%
    23:00 +1°C° 0 mm 3 mps 752 mmHg 88%

    26 February, Tuesday

    Time Temperature Precipitation Wind Pressure Humidity
    00:00 0°C° 0 mm 4 mps 752 mmHg 88%
    01:00 0°C° 0 mm 4 mps 751 mmHg 88%
    02:00 0°C° 0 mm 5 mps 751 mmHg 87%
    03:00 0°C° 0 mm 5 mps 750 mmHg 86%
    04:00 0°C° 0 mm 5 mps 749 mmHg 85%
    05:00 -1°C° 0 mm 6 mps 749 mmHg 82%
    06:00 -1°C° 0 mm 6 mps 749 mmHg 79%
    07:00 +1°C° 0 mm 6 mps 749 mmHg 77%
    08:00 +2°C° 0 mm 7 mps 748 mmHg 71%
    09:00 +3°C° 0 mm 7 mps 748 mmHg 66%
    10:00 +4°C° 0 mm 7 mps 747 mmHg 61%
    11:00 +5°C° 0 mm 7 mps 747 mmHg 60%
    12:00 +5°C° 0 mm 7 mps 747 mmHg 59%
    13:00 +6°C° 0 mm 7 mps 746 mmHg 58%
    14:00 +5°C° 0.1 mm 7 mps 746 mmHg 63%
    15:00 +5°C° 0.1 mm 6 mps 746 mmHg 67%
    16:00 +4°C° 0.1 mm 6 mps 746 mmHg 71%
    17:00 +5°C° 0 mm 5 mps 746 mmHg 75%
    18:00 +3°C° 0 mm 5 mps 746 mmHg 79%
    19:00 +2°C° 0 mm 5 mps 747 mmHg 83%
    20:00 +2°C° 0 mm 5 mps 747 mmHg 83%
    21:00 +2°C° 0 mm 5 mps 747 mmHg 84%
    22:00 +1°C° 0 mm 5 mps 747 mmHg 84%
    23:00 +1°C° 0 mm 5 mps 747 mmHg 83%

    27 February, Wednesday

    Time Temperature Precipitation Wind Pressure Humidity
    00:00 +1°C° 0 mm 5 mps 747 mmHg 82%
    01:00 0°C° 0 mm 5 mps 747 mmHg 81%
    02:00 0°C° 0 mm 4 mps 746 mmHg 81%
    03:00 -1°C° 0 mm 4 mps 746 mmHg 81%
    04:00 -1°C° 0 mm 4 mps 746 mmHg 80%
    05:00 -1°C° 0 mm 4 mps 746 mmHg 79%
    06:00 -2°C° 0 mm 4 mps 747 mmHg 78%
    07:00 -2°C° 0 mm 4 mps 747 mmHg 77%
    08:00 0°C° 0 mm 4 mps 747 mmHg 69%
    09:00 +1°C° 0 mm 4 mps 747 mmHg 61%
    10:00 +3°C° 0 mm 5 mps 747 mmHg 53%
    11:00 +5°C° 0 mm 4 mps 746 mmHg 49%
    12:00 +6°C° 0 mm 4 mps 746 mmHg 45%
    13:00 +7°C° 0 mm 4 mps 746 mmHg 41%
    14:00 +7°C° 0 mm 4 mps 745 mmHg 42%
    15:00 +7°C° 0 mm 4 mps 745 mmHg 44%
    16:00 +8°C° 0 mm 3 mps 745 mmHg 45%
    17:00 +5°C° 0 mm 3 mps 745 mmHg 50%
    18:00 +5°C° 0 mm 2 mps 745 mmHg 55%
    19:00 +4°C° 0 mm 2 mps 744 mmHg 61%
    20:00 +3°C° 0 mm 2 mps 744 mmHg 62%
    21:00 +3°C° 0 mm 2 mps 744 mmHg 64%
    22:00 +3°C° 0 mm 2 mps 743 mmHg 66%
    23:00 +1°C° 0 mm 3 mps 743 mmHg 66%
    Show more